Showing default

COSMOS 1564, 15003

Orbit data source: Space-Track

COSMOS 1564, 15003 is a payload satellite owned by GUKOS (CIS) in LEO that was launched on Mon, 28 May 1984 UTC via a KOSMOS 11K65M launch vehicle from the Plesetsk Missile And Space Complex (PKMTR). Payload-class satellites include a variety of spacecraft equipped with specific instruments for various scientific and technological missions. These include communications satellites like Starlink; space stations such as the ISS; scientific satellites like the Hubble; Earth observation satellites from companies like Planet Labs, Umbra, and HawkEye 360; GPS; miniature CubeSats for education and research; and military/defense satellites.

Loading next visibility...
Identifier
15003, 1984-052F
Orbit
LEO
Country
Flag of CISCIS
Related business
Manufacturer
NPO PM
Mission
Spacecraft
Bus & Motor
STRELA-1 11F625, Unknown motor
Mass
60 kg wet, 60 kg dry
Launch date (UTC)
1984-05-28 (42 years ago)
Launch vehicle
KOSMOS 11K65M
Launch site
Plesetsk Missile And Space Complex (PKMTR)
Object type
Payload
Rocket body
Debris
Shape & HBR
Unknown
Radar Cross Section
Medium (>0.1 m² and <1 m²)

Expand to show TLE details & history
Last TLE update: 18 hours ago

TLE from 18 hours ago
0 COSMOS 1564
1 15003U 84052F   25347.28712312 -.00000015  00000-0  81543-5 0  9998
2 15003  74.0138  66.8171 0033535 229.1333 188.1408 12.53582087900971
Epoch: 2025-12-13T06:53Z
TLE epoch observation values (Epoch: 2025-12-13T06:53:27.437Z)
Latitude
54.02318°
Longitude
-95.6402°
Altitude
1,484.018 km
Speed
7.115 km/s
True Right ascension
05h 59m 45s
True Declination
53° 52' 29"
Sunlit
Object was in full shadow at epoch
Visualization orbit readout
Latitude
Unknown
Longitude
Unknown
Altitude
Unknown
Speed
Unknown
Apparent Right ascension
Unknown
Apparent Declination
Unknown
Sunlit
N/A
Visualization observer readout
Local Sidereal Time
23:34:40
Azimuth
Unknown
Elevation
Unknown
Doppler factor
Unknown
Orbital elements
Apogee altitude
1,473.623 km
Perigee altitude
1,421.137 km
Semi-major axis
7,825.517 km
Eccentricity
0.00335
Inclination
74.0138°
RAAN
66.8171°
Arg. of periapsis
229.1333°
True anomaly
188.08661°
Mean anomaly
188.1408°
Eccentric anomaly
188.11368°
Mean motion
3.13526 °/min
Orbital period
114.82 mins
BSTAR
0.0000081543
Loading maneuver chart data...
Computing Atmospheric mass density...
Loading historical data...
Loading historical data...
Loading historical data...
Loading historical data...
Loading historical data...
Loading historical data...
Loading historical data...

Documentation

Showing up to 5 results
|